Campo, CA

3:45 PM PDT on August 22, 2019 (GMT -0700)
Campo

Weather History for KCZZ - June, 2019

Change the Weather History Date:

Wednesday, June 12, 2019

  Actual Average Record
Temperature  
Mean Temperature 76 °F 65 °F  
Max Temperature 95 °F 86 °F 101 °F (1979)
Min Temperature 56 °F 44 °F 30 °F (1955)
Degree Days  
Heating Degree Days 0 2  
Month to date heating degree days 17 33  
Since 1 June heating degree days 17 33  
Since 1 July heating degree days 3032 2960  
Cooling Degree Days 11 2  
Month to date cooling degree days 53 24  
Year to date cooling degree days 55 54  
Since 1 June cooling degree days 53 24  
Growing Degree Days 27 (Base 50)    
Moisture  
Dew Point 52 °F    
Average Humidity 51    
Maximum Humidity 78    
Minimum Humidity 23    
Precipitation  
Precipitation 0.00 in 0.01 in 0.05 in (1963)
Month to date precipitation 0.00 0.05  
Year to date precipitation 12.74 10.09  
Sea Level Pressure  
Sea Level Pressure 29.88 in    
Wind  
Wind Speed 8 mph (SSW)    
Max Wind Speed 17 mph    
Max Gust Speed 23 mph    
T = Trace of Precipitation, MM = Missing Value Source: NWS Daily Summary

Daily Weather History Graph

Daily Weather History Graph

Search for Another Location

Airport or City:

Astronomy

Jun. 12, 2019 Rise Set
Actual Time 5:37 AM PDT 7:53 PM PDT
Civil Twilight 5:09 AM PDT 8:22 PM PDT
Nautical Twilight 4:34 AM PDT 8:57 PM PDT
Astronomical Twilight 3:56 AM PDT 9:35 PM PDT
Moon 3:22 PM PDT (6/12) 2:35 AM PDT (6/12)
Length of Visible Light 15h 13m
Length of Day
14h 16m
Waxing Gibbous, 77% of the Moon is Illuminated
Jun 12
Waxing Gibbous
Jun 17
Full
Jun 25
Last Quarter
Jul 2
New
Jul 9
First Quarter

Hourly Weather History & Observations

Time (PDT) Temp. Heat Index Dew Point Humidity Pressure Visibility Wind Dir Wind Speed Gust Speed Precip Events Conditions
12:52 AM 61.0 °F - 54.0 °F 78% 29.91 in - NE 4.6 mph - N/A   Unknown
1:52 AM 59.0 °F - 52.0 °F 78% 29.91 in - NNE 3.5 mph - N/A   Unknown
2:52 AM 61.0 °F - 52.0 °F 72% 29.90 in - ENE 4.6 mph - N/A   Unknown
3:52 AM 60.1 °F - 50.0 °F 69% 29.89 in - NNE 6.9 mph - N/A   Unknown
4:52 AM 60.1 °F - 50.0 °F 69% 29.91 in - NE 4.6 mph - N/A   Unknown
5:52 AM 59.0 °F - 50.0 °F 72% 29.91 in - NE 6.9 mph - N/A   Unknown
6:52 AM 63.0 °F - 52.0 °F 67% 29.92 in - NE 5.8 mph - N/A   Unknown
7:52 AM 73.0 °F - 53.1 °F 49% 29.92 in - Calm Calm - N/A   Unknown
8:52 AM 82.0 °F - 50.0 °F 33% 29.91 in - SW 3.5 mph - N/A   Unknown
9:52 AM 89.1 °F - 50.0 °F 26% 29.89 in - SW 6.9 mph - N/A   Unknown
10:52 AM 91.9 °F - 50.0 °F 24% 29.89 in - SW 10.4 mph - N/A   Unknown
11:52 AM 91.9 °F - 51.1 °F 25% 29.89 in - SSW 13.8 mph - N/A   Unknown
12:52 PM 93.0 °F 90.8 °F 54.0 °F 27% 29.88 in - SSW 13.8 mph - N/A   Unknown
1:52 PM 95.0 °F 92.7 °F 54.0 °F 25% 29.87 in - SW 13.8 mph - N/A   Unknown
2:52 PM 93.9 °F 92.0 °F 55.0 °F 27% 29.85 in - SW 13.8 mph 23.0 mph N/A   Unknown
3:52 PM 93.0 °F - 50.0 °F 23% 29.84 in - SW 10.4 mph - N/A   Unknown
4:52 PM 89.1 °F 86.7 °F 53.1 °F 29% 29.84 in - SSW 13.8 mph - N/A   Unknown
5:52 PM 84.9 °F 83.6 °F 55.0 °F 36% 29.83 in - SW 15.0 mph - N/A   Unknown
6:52 PM 78.1 °F - 55.0 °F 45% 29.85 in - SW 12.7 mph - N/A   Unknown
7:52 PM 73.0 °F - 55.0 °F 53% 29.86 in - SW 8.1 mph - N/A   Unknown
8:52 PM 70.0 °F - 54.0 °F 57% 29.86 in - SSW 5.8 mph - N/A   Unknown
9:52 PM 64.9 °F - 54.0 °F 68% 29.87 in - Calm Calm - N/A   Unknown
10:52 PM 59.0 °F - 52.0 °F 78% 29.88 in - NE 4.6 mph - N/A   Unknown
11:52 PM 59.0 °F - 53.1 °F 81% 29.87 in - NE 4.6 mph - N/A   Unknown